Weather Service Report


838 
ASUS41 KBOX 282310
RWRBOX

REGIONAL WEATHER ROUNDUP
NATIONAL WEATHER SERVICE TAUNTON MA
700 PM EDT WED SEP 28 2016

NOTE:  "FAIR" INDICATES FEW OR NO CLOUDS BELOW 12,000 FEET WITH NO 
SIGNIFICANT WEATHER AND/OR OBSTRUCTIONS TO VISIBILITY.

MAZALL-290000-
EASTERN MASSACHUSETTS
  
CITY           SKY/WX    TMP DP  RH WIND       PRES   REMARKS
BOSTON         DRIZZLE   57  53  86 NE21G26   30.27F                  
BEVERLY        CLOUDY    58  52  80 NE15G22   30.28S                  
LAWRENCE       CLOUDY    57  51  80 NE9       30.32S                  
BEDFORD        CLOUDY    57  49  74 NE13      30.27F                  
BLUE HILL        N/A     52  52 100 NE16G30   30.25S                  
NORWOOD        CLOUDY    56  52  86 NE9       30.27S FOG              
MARSHFIELD     CLOUDY    59  57  94 NE12G24   30.25F FOG              
PLYMOUTH       LGT RAIN  57  56  96 NE20G29   30.24S FOG              
TAUNTON        CLOUDY    57  55  93 VRB5      30.24S FOG              
NEW BEDFORD    CLOUDY    59  56  89 NE12G17   30.21F FOG              
$$

MAZALL-290000-
CAPE COD AND THE ISLANDS
  
CITY           SKY/WX    TMP DP  RH WIND       PRES   REMARKS
FALMOUTH       LGT RAIN  59  59 100 NE17G23   30.21S VSB 1            
HYANNIS        CLOUDY    60  58  92 NE17G25   30.19S                  
CHATHAM        CLOUDY    60  58  92 NE16G25   30.21S FOG              
PROVINCETOWN   LGT RAIN  59  58  96 NE21      30.24S FOG              
NANTUCKET      CLOUDY    60  58  92 NE22G31   30.18R FOG              
MARTHAS VNYRD  CLOUDY    60  59  96 NE14G22   30.19S FOG              
$$
 
MAZALL-290000-
CENTRAL AND WESTERN MASSACHUSETTS
  
CITY           SKY/WX    TMP DP  RH WIND       PRES   REMARKS
WORCESTER      CLOUDY    51  47  86 NE12      30.27R                  
FITCHBURG      CLOUDY    56  47  71 NE7       30.31S                  
ORANGE         CLOUDY    54  48  80 E8        30.29S                  
SPRINGFIELD    CLOUDY    56  48  74 E10       30.27R                  
WESTFIELD      CLOUDY    56  48  74 NE9       30.28R                  
NORTH ADAMS    CLOUDY    57  46  66 E17G26    30.26R                  
PITTSFIELD     CLOUDY    53  46  77 E9G18     30.25R                  
$$
 
RIZALL-290000-
RHODE ISLAND
  
CITY           SKY/WX    TMP DP  RH WIND       PRES   REMARKS
PROVIDENCE     CLOUDY    56  52  86 N18       30.24F                  
NEWPORT        CLOUDY    57  55  93 NE16G23   30.21S                  
BLOCK ISLAND   CLOUDY    59  56  89 NE18G28   30.20S                  
SMITHFIELD     CLOUDY    54  52  93 NE10      30.26S                  
WESTERLY       CLOUDY    58  51  78 NE10G22   30.22R                  
$$
 
CTZALL-290000-
CONNECTICUT
  
CITY           SKY/WX    TMP DP  RH WIND       PRES   REMARKS
BRADLEY INTL   CLOUDY    57  48  72 NE15      30.26R                  
HARTFORD       CLOUDY    58  50  75 NE15      30.25R                  
BRIDGEPORT     CLOUDY    61  51  70 NE15      30.21R                  
DANBURY        CLOUDY    57  50  77 NE12      30.23R                  
GROTON         CLOUDY    59  52  77 NE14G26   30.21R                  
NEW HAVEN      CLOUDY    59  51  75 NE13      30.21R                  
CHESTER        CLOUDY    55  52  88 NE13G20   30.22R                  
MERIDEN        CLOUDY    59  50  72 VRB5G18   30.23R                  
WILLIMANTIC    CLOUDY    58  51  78 NE13G21   30.25S                  
OXFORD         CLOUDY    55  48  76 E13G23    30.23R                  
$$

MEZ002-015-021-024-NHZ003-005-008-011-012-014-VTZ005-008-290000-
NORTHERN NEW ENGLAND
  
CITY           SKY/WX    TMP DP  RH WIND       PRES   REMARKS
PORTLAND ME    MOCLDY    56  52  86 E12       30.34R                  
BANGOR ME      CLOUDY    58  45  62 NE7       30.38R                  
CONCORD NH     MOCLDY    55  47  74 CALM      30.32S                  
MANCHESTER NH  PTCLDY    56  47  71 N6        30.30S                  
NASHUA NH      CLOUDY    56  50  80 N3        30.31S                  
PORTSMOUTH NH  MOCLDY    57  50  75 NE7       30.30S                  
JAFFREY NH     CLOUDY    52  46  80 VRB3      30.31S                  
KEENE NH       CLOUDY    55  47  74 VRB5      30.31R                  
BURLINGTON VT  PTCLDY    65  49  56 CALM      30.26R                  
MT. WASHINGTON MOCLDY    39  32  75 E13         N/A  WCI  32          
$$

NYZ052-076-290000-
EASTERN NEW YORK
  
CITY           SKY/WX    TMP DP  RH WIND       PRES   REMARKS
ALBANY         PTCLDY    61  48  62 E6        30.24R                  
NEW YORK CITY  CLOUDY    64  56  75 NE22G29   30.18R                  
$$
 
ANZALL-290000-
MARINE OBSERVATIONS
  
STATION/POSITION TIME  TEMP    WIND        PRES    VSBY  WAVE
                       AIR SEA DIR/SP/G                  HT/PER
                 (UTC) (F)     (DEG/KT/KT) (MB)    (MI)  (FT/S)
BOSTON BUOY      2250   58 63   40/ 23/ 27 1024.2S         9/ 8
BUZZARDS BAY     2300   59      30/ 25/ 27 1022.5R
NANTUCKET SOUND  2250   61 66   40/ 23/ 29 1021.5R         3/ 4
MASS BAY-STELLWA 2204   58 61   30/ 21/ 23 1024.7R  1 7/8  7/ 7
ISLE OF SHOALS   2300   58      60/ 24/ 28 1025.5R
S OF BLOCK IS    2155      65                N/A           7/ 6
$$

......................KEY.........................
  SKY/WX - SKY CONDITION/PRESENT WEATHER
  TMP    - TEMPERATURE IN FAHRENHEIT
  DWPT   - DEWPOINT IN FAHRENHEIT
  RH     - RELATIVE HUMIDITY IN PERCENT
  WIND   - DIRECTION AND SPEED IN MPH
  PRES   - MEAN SEA LEVEL PRESSURE IN INCHES OF HG
  WCI    - WIND CHILL INDEX
  VSB    - VISIBILITY IN MILES
  HX     - HEAT INDEX
  TC     - TEMPERATURE IN CELSIUS
  VRB    - VARIABLE WIND DIRECTION
  N/A    - NOT AVAILABLE
  

Return to Home page


Western Regional Climate Center, wrcc@dri.edu